Location: Pic du Midi - T1M
(42.9366°N, 0.1426°E)
Time: 13:02:18
(UTC+01:00)

DX 1 - Pass Details

Date: 24 September 2021
Orbit: 618 x 630 km, 98.4° (Epoch: 19 October)

Event Time Altitude Azimuth Distance (km) Brightness Sun altitude
Rises 20:43:32 0° 17° (NNE) 2,897 ? -20.7°
Reaches altitude 10° 20:45:45 10° 21° (NNE) 1,987 ? -21.1°
Enters shadow 20:49:10 48° 55° (NE) 807 ? -21.7°
